#timestamp,LO_Frequency,Hit,StdDev 
1619596815.8,286047000.6,N
1619596835.6,286046999.7,N
1619596855.5,286047000.6,N
1619596875.3,286047003.7,N
1619596895.2,286047001.3,N
1619596915.9,286047002.4,N
1619596935.7,286046999.7,N
1619596955.6,286047000.1,N
1619596975.4,286046996.9,N
1619596995.3,286046995.3,N
1619597015.1,286046993.5,Y
1619597035.8,286046996.5,P
1619597055.7,286046998.2,N
1619597075.5,286047002.6,N
1619597095.4,286047000.9,N
1619597115.2,286046998.7,N
1619597135.0,286046998.4,N
1619597135.9,286046998.4,N
1619597155.8,286047000.4,N
1619597175.6,286047001.7,N
1619597195.5,286047002.0,N
1619597215.3,286047002.6,N
1619597235.1,286047001.9,N
1619597255.9,286047001.4,N
1619597275.7,286047002.2,N
1619597295.5,286047000.3,N
1619597315.4,286047000.8,N
1619597335.2,286047001.1,N
1619597355.1,286047000.3,N
1619597356.0,286047000.3,N
1619597375.8,286047002.4,N
1619597395.6,286047002.5,N
1619597415.5,286047000.4,N
1619597435.3,286046998.5,N
1619597455.1,286047000.5,N
1619597475.9,286047003.9,N
1619597495.7,286047004.7,N
1619597515.6,286047005.9,Y
1619597535.4,286047004.8,P
1619597555.2,286047005.0,N
1619597575.1,286047005.6,N
1619597576.0,286047005.6,N
1619597595.8,286046999.8,N
1619597615.7,286047001.4,N
1619597635.5,286047002.6,N
1619597655.3,286046999.9,N
1619597675.2,286047000.5,N
1619597695.0,286047000.0,N
1619597695.9,286047000.0,N
1619597715.8,286047001.5,N
1619597735.6,286047003.9,N
1619597755.4,286047003.9,N
1619597775.3,286047003.0,N
1619597795.1,286047004.0,N
1619597815.9,286047002.1,N
1619597835.7,286047002.5,N
1619597855.5,286047002.1,N
1619597875.4,286047001.7,N
1619597895.2,286047002.4,N
1619597915.0,286047002.2,N
1619597916.0,286047002.2,N
1619597935.8,286047002.4,N
1619597955.6,286047000.8,N
1619597975.5,286046999.4,N
1619597995.3,286046996.6,N
1619598015.1,286046999.5,N
1619598035.9,286047000.5,N
1619598055.7,286047002.6,N
1619598075.6,286047002.0,N
1619598095.4,286047003.7,N
1619598115.2,286047003.3,N
1619598135.1,286047005.3,N
1619598136.0,286047005.3,N
1619598155.8,286047004.4,N
1619598175.6,286047000.2,N
1619598195.5,286047001.1,N
1619598215.3,286046999.8,N
1619598235.2,286047002.6,N
1619598255.9,286047001.7,N
1619598275.7,286047001.7,N
1619598295.6,286047002.2,N
1619598315.4,286047003.9,N
1619598335.2,286047004.2,N
1619598355.1,286047004.2,N
1619598356.0,286047004.2,N
1619598375.8,286047000.6,N
1619598395.7,286047000.5,N
1619598415.5,286047002.4,N
1619598435.3,286047002.4,N
1619598455.2,286047000.6,N
1619598475.0,286047000.2,N
1619598475.9,286047000.2,N
1619598495.7,286047000.7,N
1619598515.6,286047001.1,N
1619598535.4,286046999.2,N
1619598555.3,286046999.4,N
1619598575.1,286046998.2,N
1619598576.0,286046998.2,N
1619598595.8,286047000.0,N
1619598615.7,286047000.4,N
1619598635.5,286047000.2,N
1619598655.3,286047000.1,N
1619598675.2,286047002.4,N
1619598695.0,286047001.1,N
1619598695.9,286047001.1,N
1619598715.8,286046996.6,N
1619598735.6,286046995.0,N
1619598755.4,286046996.1,N
1619598775.3,286046995.3,N
1619598795.1,286046999.3,N
1619598815.8,286046999.6,N
1619598835.7,286046996.5,N
1619598855.5,286046996.5,N
1619598875.4,286046999.2,N
1619598895.2,286047000.2,N
1619598915.0,286047001.3,N
1619598915.9,286047001.3,N
1619598935.8,286047001.6,N
1619598955.6,286046996.5,N
1619598975.5,286046999.1,N
1619598995.3,286046997.7,N
1619599015.1,286046999.0,N
1619599035.9,286046998.3,N
1619599055.7,286046999.4,N
1619599075.5,286046998.8,N
1619599095.4,286047000.5,N
1619599115.2,286047001.1,N
1619599135.1,286046998.6,N
1619599136.0,286046998.6,N
1619599155.8,286047000.1,N
1619599175.6,286047000.0,N
1619599195.5,286047000.2,N
1619599215.3,286047000.1,N
1619599235.1,286047002.5,N
1619599255.9,286047002.6,N
1619599275.7,286046998.9,N
1619599295.6,286046999.6,N
1619599315.4,286046999.1,N
1619599335.2,286047000.4,N
1619599355.1,286047002.3,N
1619599356.0,286047002.3,N
1619599375.8,286047002.2,N
1619599395.6,286047001.3,N
1619599415.5,286047004.0,N
1619599435.3,286047001.4,N
1619599455.2,286047004.3,N
1619599475.9,286047002.2,N
1619599495.7,286047002.4,N
1619599515.6,286046999.9,N
1619599535.4,286046999.8,N
1619599555.3,286047000.7,N
1619599575.1,286046996.5,N
1619599576.0,286046996.5,N
1619599595.8,286046999.5,N
1619599615.7,286046999.2,N
1619599635.5,286047001.1,N
1619599655.3,286047002.2,N
1619599675.2,286047000.3,N
1619599695.0,286046999.3,N
1619599695.9,286046999.3,N
1619599715.8,286046997.4,N
1619599735.6,286046995.3,N
1619599755.4,286046998.9,N
1619599775.3,286046998.7,N
1619599795.1,286047000.7,N
1619599815.9,286047000.6,N
1619599835.7,286046998.5,N
1619599855.5,286046997.0,N
1619599875.4,286046997.8,N
1619599895.2,286046997.1,N
1619599915.1,286046996.5,N
1619599916.0,286046996.5,N
1619599935.8,286046999.6,N
1619599955.6,286046998.4,N
1619599975.5,286046999.9,N
1619599995.3,286047002.3,N
1619600015.1,286047002.2,N
1619600035.9,286047002.8,N
1619600055.7,286047000.6,N
1619600075.6,286046998.1,N
1619600095.4,286047002.3,N
1619600115.2,286046997.0,N
1619600135.1,286046996.4,N
1619600136.0,286046996.4,N
1619600155.8,286046994.9,N
1619600175.6,286046999.1,N
1619600195.5,286046999.9,N
1619600215.3,286047002.2,N
1619600235.2,286047002.0,N
1619600255.9,286047001.8,N
1619600275.7,286047000.9,N
1619600295.6,286046999.2,N
1619600315.4,286046995.2,N
1619600335.2,286046996.3,N
1619600355.1,286046994.8,N
1619600356.0,286046994.8,N
1619600375.8,286046995.4,N
1619600395.7,286046995.4,N
